Nellis AFB, NV

4:03 PM PST on December 09, 2019 (GMT -0800)
Nellis Air Force Base

Weather History for KLSV - October, 2019

Change the Weather History Date:

Saturday, October 26, 2019

  Actual Average Record
Temperature  
Mean Temperature 64 °F -  
Max Temperature 80 °F 72 °F 89 °F (2008)
Min Temperature 48 °F 49 °F 41 °F (1997)
Degree Days  
Heating Degree Days 2    
Growing Degree Days 14 (Base 50)    
Moisture  
Dew Point 20 °F    
Average Humidity 19    
Maximum Humidity 27    
Minimum Humidity 13    
Precipitation  
Precipitation 0.00 in - - ()
Sea Level Pressure  
Sea Level Pressure 29.79 in    
Wind  
Wind Speed 2 mph (NNE)    
Max Wind Speed 9 mph    
Max Gust Speed -    
Visibility 10 miles    
Events      
Averages and records for this station are not official NWS values.
T = Trace of Precipitation, MM = Missing Value Source: NWS Daily Summary

Daily Weather History Graph

Daily Weather History Graph

Search for Another Location

Airport or City:

Astronomy

Oct. 26, 2019 Rise Set
Actual Time 6:57 AM PDT 5:50 PM PDT
Civil Twilight 6:30 AM PDT 6:16 PM PDT
Nautical Twilight 6:00 AM PDT 6:46 PM PDT
Astronomical Twilight 5:30 AM PDT 7:16 PM PDT
Moon 5:03 AM PDT (10/26) 5:24 PM PDT (10/26)
Length of Visible Light 11h 46m
Length of Day
10h 53m
Waning Crescent, 3% of the Moon is Illuminated
Oct 26
Waning Crescent
Oct 27
New
Nov 4
First Quarter
Nov 12
Full
Nov 19
Last Quarter

Hourly Weather History & Observations

Time (PDT) Temp. Dew Point Humidity Pressure Visibility Wind Dir Wind Speed Gust Speed Precip Events Conditions
12:58 AM 53.6 °F 14.5 °F 21% 29.97 in 10.0 mi NNE 3.5 mph - N/A   Clear
1:58 AM 51.1 °F 14.5 °F 23% 29.94 in 10.0 mi Calm Calm - N/A   Clear
2:58 AM 51.1 °F 14.5 °F 23% 29.93 in 10.0 mi Calm Calm - N/A   Clear
3:58 AM 51.8 °F 15.1 °F 23% 29.92 in 10.0 mi Calm Calm - N/A   Clear
4:58 AM 49.6 °F 15.3 °F 25% 29.91 in 10.0 mi ENE 1.2 mph - N/A   Clear
5:58 AM 48.0 °F 14.7 °F 26% 29.90 in 10.0 mi Calm Calm - N/A   Clear
6:58 AM 49.3 °F 16.7 °F 27% 29.89 in 10.0 mi North 1.2 mph - N/A   Clear
7:58 AM 48.9 °F 16.3 °F 27% 29.91 in 10.0 mi North 3.5 mph - N/A   Clear
8:58 AM 56.7 °F 19.2 °F 23% 29.91 in 10.0 mi Calm Calm - N/A   Clear
9:58 AM 61.2 °F 20.8 °F 21% 29.90 in 10.0 mi Calm Calm - N/A   Clear
10:58 AM 67.6 °F 22.6 °F 18% 29.86 in 10.0 mi Calm Calm - N/A   Clear
11:58 AM 72.3 °F 22.1 °F 15% 29.83 in 10.0 mi SE 3.5 mph - N/A   Clear
12:58 PM 75.4 °F 22.8 °F 14% 29.79 in 10.0 mi SSW 4.6 mph - N/A   Clear
1:58 PM 78.3 °F 25.2 °F 14% 29.75 in 10.0 mi Calm Calm - N/A   Clear
2:58 PM 79.7 °F 24.4 °F 13% 29.70 in 10.0 mi Calm Calm - N/A   Clear
3:58 PM 79.7 °F 24.4 °F 13% 29.67 in 10.0 mi NE 8.1 mph - N/A   Clear
4:58 PM 79.7 °F 24.4 °F 13% 29.65 in 10.0 mi East 9.2 mph - N/A   Clear
5:58 PM 76.1 °F 23.4 °F 14% 29.64 in 10.0 mi East 6.9 mph - N/A   Clear
6:58 PM 71.4 °F 22.8 °F 16% 29.62 in 10.0 mi North 3.5 mph - N/A   Clear
7:58 PM 71.6 °F 19.4 °F 14% 29.62 in 10.0 mi East 5.8 mph - N/A   Clear
8:58 PM 69.8 °F 19.4 °F 15% 29.61 in 10.0 mi NNW 3.5 mph - N/A   Clear
9:58 PM 65.8 °F 23.5 °F 20% 29.60 in 10.0 mi NNW 4.6 mph - N/A   Clear
11:55 PM 64.8 °F 22.8 °F 20% 29.57 in 10.0 mi NNW 6.9 mph - N/A   Clear